sat.trackr.live / text

‹ back to catalog

STARLINK-36898

NORAD 68002 · 2026-039S

PAYLOAD ACTIVE UNKNOWN

§ Identity

Operator
Country
US
Launch date
2026-02-27
Launch site
AFETR
Launch vehicle
Mass (kg)
RCS (m²)

Purposes: comms

External: N2YO · Heavens-Above · Gunter

§ Orbital elements

Epoch: 2026-05-24T22:54:20.496960Z

Period
94.27 min
Inclination
43.0013°
Eccentricity
0.0001231
Mean motion
15.27580876 rev/d
Perigee alt
482.2 km
Apogee alt
483.9 km
Semi-major
6,861.2 km
B*
2.8013e-4
RAAN
338.5286°
Arg perigee
268.3224°
Mean anomaly
91.7487°
Rev number
1,336

§ Raw data

STARLINK-368981 68002U 26039S   26144.95440390  .00007454  00000+0  28013-3 0  99932 68002  43.0013 338.5286 0001231 268.3224  91.7487 15.27580876 13366

JSON: /api/v1/satellites/68002 · /tle

For live sub-satellite position, see the globe view (requires WebGL).

§ Visibility from observer

Set your observer location to see the next 7 days of passes ≥ 10°. The values pass through the URL so the page stays shareable.

No JS? Fill the form by hand. The geolocation button needs JavaScript.